WZZ8329 EPKK-LIRF

Flight info

Callsign WZZ8329
Flight time N/A
Altitude 24000
Route BABKO L856 KOPAT/N0447F380 DCT MAREG DCT RADLY/N0448F390 DCT ROSKA DCT AGOMO DCT GAVRA DCT RITEB
Aircraft A20N/M-SDE2E3FGHIRWXY/LB1

Departure

Time 2026-05-06 17:17
Airport Kraków John Paul II International Airport (EPKK)

Arrival

Time N/A
Airport Rome–Fiumicino Leonardo da Vinci International Airport (LIRF)
Time Latitude Longitude Altitude Speed Heading
2026-05-06 16:34 50.07524 19.80502 790 ft 0 kts 46°
2026-05-06 17:12 50.07513 19.80486 790 ft 3 kts 50°
2026-05-06 17:13 50.07505 19.80462 790 ft 3 kts 53°
2026-05-06 17:13 50.07491 19.80446 790 ft 3 kts 14°
2026-05-06 17:13 50.07491 19.80445 790 ft 0 kts 12°
2026-05-06 17:14 50.07534 19.80438 790 ft 14 kts 349°
2026-05-06 17:14 50.07637 19.80399 790 ft 16 kts 345°
2026-05-06 17:14 50.07748 19.80363 790 ft 17 kts 349°
2026-05-06 17:14 50.07823 19.80337 790 ft 0 kts 348°
2026-05-06 17:15 50.07842 19.80331 790 ft 14 kts 348°
2026-05-06 17:15 50.07981 19.80271 790 ft 22 kts 320°
2026-05-06 17:15 50.07991 19.80077 791 ft 1 kts 258°
2026-05-06 17:16 50.07990 19.80070 792 ft 8 kts 258°
2026-05-06 17:16 50.07915 19.79514 793 ft 104 kts 257°
2026-05-06 17:17 50.07687 19.77900 895 ft 189 kts 257°
2026-05-06 17:17 50.07412 19.75824 1798 ft 203 kts 258°
2026-05-06 17:17 50.07123 19.73594 2963 ft 214 kts 255°
2026-05-06 17:17 50.06784 19.71190 3795 ft 245 kts 254°
2026-05-06 17:18 50.06359 19.68436 4291 ft 278 kts 249°
2026-05-06 17:18 50.05302 19.65835 5077 ft 295 kts 220°
2026-05-06 17:18 50.03455 19.64441 6221 ft 303 kts 192°
2026-05-06 17:18 50.01330 19.64591 7378 ft 312 kts 170°
2026-05-06 17:19 49.99205 19.65500 8487 ft 321 kts 166°
2026-05-06 17:19 49.97033 19.66512 9614 ft 330 kts 166°
2026-05-06 17:19 49.94802 19.67483 10698 ft 336 kts 167°
2026-05-06 17:19 49.92526 19.68384 11881 ft 340 kts 169°
2026-05-06 17:20 49.90206 19.69168 13055 ft 343 kts 174°
2026-05-06 17:20 49.87818 19.69148 14070 ft 346 kts 191°
2026-05-06 17:20 49.85536 19.67967 15085 ft 349 kts 206°
2026-05-06 17:20 49.83435 19.66197 16065 ft 353 kts 210°
2026-05-06 17:21 49.81266 19.64199 17089 ft 359 kts 210°
2026-05-06 17:21 49.79104 19.62215 18038 ft 364 kts 210°
2026-05-06 17:21 49.76898 19.60228 18876 ft 370 kts 209°
2026-05-06 17:21 49.74640 19.58233 19643 ft 376 kts 209°
2026-05-06 17:22 49.72343 19.56232 20387 ft 382 kts 209°
2026-05-06 17:22 49.70003 19.54212 21158 ft 387 kts 210°
2026-05-06 17:22 49.67634 19.52179 21921 ft 392 kts 210°
2026-05-06 17:22 49.65233 19.50127 22673 ft 397 kts 210°
2026-05-06 17:23 49.62815 19.48011 23407 ft 401 kts 212°
2026-05-06 17:23 49.60518 19.45537 23983 ft 405 kts 220°
2026-05-06 17:23 49.58423 19.42614 24588 ft 408 kts 225°
2026-05-06 17:23 49.56442 19.39462 25214 ft 411 kts 227°
2026-05-06 17:24 49.54514 19.36201 25807 ft 413 kts 228°
2026-05-06 17:24 49.52596 19.32895 26401 ft 415 kts 229°
2026-05-06 17:24 49.50658 19.29565 26952 ft 419 kts 228°
2026-05-06 17:24 49.48698 19.26239 27487 ft 422 kts 228°